WMT469 EDDN-LRSB

Flight info

Callsign WMT469
Flight time N/A
Altitude 37000
Route RODIS1G/28 RODIS L604 LAMSI DCT TAGAS DCT PESAT DCT TEKNO DCT ZOLKU DCT GILEP DCT BUDOP DCT IBINU
Aircraft A320/M-SDE1E2E3FGIJ1J4RWXY/LB1

Departure

Time N/A
Airport Nuremberg Airport (EDDN)

Arrival

Time 2026-05-04 14:24
Airport Sibiu International Airport (LRSB)
Time Latitude Longitude Altitude Speed Heading
2026-05-04 13:40 47.40332 18.60523 37085 ft 452 kts 108°
2026-05-04 13:41 47.38312 18.69307 37087 ft 452 kts 107°
2026-05-04 13:41 47.36282 18.78068 37097 ft 451 kts 108°
2026-05-04 13:42 47.33209 18.91171 37098 ft 451 kts 108°
2026-05-04 13:42 47.31162 18.99835 37107 ft 451 kts 108°
2026-05-04 13:43 47.29099 19.08545 37108 ft 450 kts 108°
2026-05-04 13:43 47.27034 19.17238 37104 ft 449 kts 108°
2026-05-04 13:44 47.24967 19.25916 37106 ft 449 kts 108°
2026-05-04 13:44 47.22893 19.34581 37103 ft 449 kts 108°
2026-05-04 13:45 47.20815 19.43230 37105 ft 448 kts 108°
2026-05-04 13:45 47.18729 19.51869 37109 ft 448 kts 108°
2026-05-04 13:46 47.16640 19.60491 37100 ft 448 kts 108°
2026-05-04 13:46 47.14885 19.67703 37098 ft 447 kts 108°
2026-05-04 13:47 47.12786 19.76314 37118 ft 448 kts 107°
2026-05-04 13:47 47.10680 19.84911 37104 ft 448 kts 108°
2026-05-04 13:48 47.08560 19.93510 37099 ft 448 kts 108°
2026-05-04 13:48 47.06441 20.02100 37100 ft 448 kts 108°
2026-05-04 13:49 47.04313 20.10686 37111 ft 448 kts 108°
2026-05-04 13:49 47.02180 20.19266 37109 ft 448 kts 108°
2026-05-04 13:50 47.00048 20.27837 37111 ft 448 kts 108°
2026-05-04 13:50 46.97901 20.36403 37111 ft 448 kts 108°
2026-05-04 13:51 46.95747 20.44953 37113 ft 448 kts 108°
2026-05-04 13:51 46.93588 20.53500 37114 ft 448 kts 108°
2026-05-04 13:52 46.90333 20.66304 37114 ft 447 kts 108°
2026-05-04 13:53 46.88162 20.74826 37112 ft 447 kts 108°
2026-05-04 13:53 46.85989 20.83344 37124 ft 447 kts 108°
2026-05-04 13:54 46.82725 20.96034 37118 ft 446 kts 108°
2026-05-04 13:55 46.79446 21.08752 37117 ft 446 kts 108°
2026-05-04 13:55 46.76153 21.21436 37122 ft 446 kts 108°
2026-05-04 13:56 46.73954 21.29877 37121 ft 445 kts 108°
2026-05-04 13:57 46.70636 21.42494 37113 ft 444 kts 109°
2026-05-04 13:58 46.65025 21.58518 37121 ft 447 kts 119°
2026-05-04 13:58 46.60168 21.70082 37113 ft 446 kts 119°
2026-05-04 13:59 46.56929 21.77785 37109 ft 447 kts 119°
2026-05-04 13:59 46.53673 21.85479 36764 ft 447 kts 120°
2026-05-04 14:00 46.52042 21.89322 36515 ft 447 kts 120°
2026-05-04 14:00 46.48783 21.96986 35995 ft 446 kts 119°
2026-05-04 14:00 46.47151 22.00819 35745 ft 446 kts 119°
2026-05-04 14:01 46.45522 22.04646 35492 ft 445 kts 119°
2026-05-04 14:01 46.43896 22.08461 35232 ft 444 kts 119°
2026-05-04 14:01 46.40665 22.16008 34470 ft 439 kts 119°
2026-05-04 14:02 46.39057 22.19759 33976 ft 437 kts 119°
2026-05-04 14:02 46.37455 22.23495 33457 ft 435 kts 119°
2026-05-04 14:02 46.35861 22.27205 32981 ft 432 kts 119°
2026-05-04 14:02 46.34281 22.30881 32507 ft 428 kts 119°
2026-05-04 14:03 46.32711 22.34530 31999 ft 425 kts 119°
2026-05-04 14:03 46.31152 22.38147 31534 ft 422 kts 119°
2026-05-04 14:03 46.29600 22.41737 31062 ft 420 kts 119°
2026-05-04 14:03 46.28056 22.45301 30600 ft 417 kts 119°
2026-05-04 14:04 46.25004 22.52348 29666 ft 410 kts 120°
2026-05-04 14:04 46.23498 22.55818 29229 ft 405 kts 120°
2026-05-04 14:04 46.22008 22.59245 28799 ft 401 kts 120°
2026-05-04 14:05 46.19071 22.65985 27967 ft 393 kts 120°
2026-05-04 14:05 46.17620 22.69308 27565 ft 389 kts 120°
2026-05-04 14:05 46.16183 22.72597 27163 ft 387 kts 120°
2026-05-04 14:06 46.14755 22.75866 26755 ft 384 kts 120°
2026-05-04 14:06 46.13337 22.79112 26368 ft 381 kts 120°
2026-05-04 14:06 46.11929 22.82329 25969 ft 378 kts 120°
2026-05-04 14:06 46.10528 22.85523 25567 ft 376 kts 120°
2026-05-04 14:07 46.09133 22.88702 25149 ft 374 kts 120°
2026-05-04 14:07 46.07743 22.91860 24730 ft 372 kts 120°
2026-05-04 14:07 46.06358 22.95001 24311 ft 371 kts 120°
2026-05-04 14:07 46.04999 22.98088 23894 ft 369 kts 120°
2026-05-04 14:08 46.03625 23.01203 23408 ft 368 kts 120°
2026-05-04 14:08 46.02258 23.04297 22982 ft 365 kts 120°
2026-05-04 14:08 46.00904 23.07363 22545 ft 362 kts 120°
2026-05-04 14:08 45.99561 23.10399 22120 ft 358 kts 119°
2026-05-04 14:09 45.96901 23.16389 21275 ft 353 kts 119°
2026-05-04 14:09 45.95584 23.19347 20842 ft 350 kts 119°
2026-05-04 14:10 45.92986 23.25203 20004 ft 344 kts 116°
2026-05-04 14:10 45.92016 23.28299 19580 ft 337 kts 104°
2026-05-04 14:10 45.91536 23.31553 19169 ft 330 kts 92°
2026-05-04 14:10 45.91316 23.34825 18763 ft 328 kts 92°
2026-05-04 14:11 45.91088 23.38077 18356 ft 327 kts 92°
2026-05-04 14:11 45.90622 23.44518 17508 ft 322 kts 92°
2026-05-04 14:11 45.90390 23.47700 17110 ft 319 kts 92°
2026-05-04 14:12 45.90162 23.50849 16711 ft 316 kts 92°
2026-05-04 14:12 45.89935 23.53974 16324 ft 314 kts 93°
2026-05-04 14:12 45.89479 23.60152 15543 ft 309 kts 93°
2026-05-04 14:13 45.89252 23.63208 15162 ft 307 kts 92°
2026-05-04 14:13 45.89179 23.66249 14765 ft 304 kts 88°
2026-05-04 14:13 45.89146 23.69278 14370 ft 303 kts 89°
2026-05-04 14:13 45.89110 23.72294 13990 ft 302 kts 89°
2026-05-04 14:14 45.89070 23.75297 13576 ft 300 kts 89°
2026-05-04 14:14 45.88993 23.81245 12848 ft 295 kts 89°
2026-05-04 14:14 45.88952 23.84094 12668 ft 277 kts 89°
2026-05-04 14:15 45.88873 23.89486 11767 ft 269 kts 89°
2026-05-04 14:15 45.88795 23.94883 11044 ft 271 kts 89°
2026-05-04 14:16 45.88709 24.00314 10333 ft 274 kts 89°
2026-05-04 14:16 45.88664 24.03048 10019 ft 274 kts 89°
2026-05-04 14:17 45.88577 24.08445 9245 ft 266 kts 89°
2026-05-04 14:17 45.88533 24.11083 8937 ft 260 kts 89°
2026-05-04 14:17 45.88448 24.16187 8209 ft 257 kts 89°
2026-05-04 14:18 45.88406 24.18736 7852 ft 260 kts 89°
2026-05-04 14:18 45.88312 24.23882 7149 ft 257 kts 88°
2026-05-04 14:19 45.88224 24.28870 6825 ft 240 kts 88°
2026-05-04 14:19 45.88030 24.31174 6708 ft 232 kts 107°
2026-05-04 14:19 45.87165 24.33113 6609 ft 233 kts 136°
2026-05-04 14:19 45.85734 24.34287 6121 ft 249 kts 166°
2026-05-04 14:20 45.83959 24.34403 5516 ft 263 kts 182°
2026-05-04 14:20 45.82117 24.34310 4921 ft 266 kts 182°
2026-05-04 14:20 45.80315 24.34065 4686 ft 252 kts 199°
2026-05-04 14:21 45.78238 24.30776 4325 ft 225 kts 266°
2026-05-04 14:21 45.78231 24.28551 3980 ft 224 kts 275°
2026-05-04 14:21 45.78277 24.26344 3663 ft 217 kts 274°
2026-05-04 14:21 45.78315 24.24249 3414 ft 204 kts 275°
2026-05-04 14:22 45.78350 24.22289 3150 ft 189 kts 276°
2026-05-04 14:22 45.78382 24.20484 2909 ft 173 kts 276°
2026-05-04 14:22 45.78409 24.18885 2695 ft 149 kts 276°
2026-05-04 14:22 45.78436 24.17422 2497 ft 147 kts 272°
2026-05-04 14:23 45.78487 24.14541 2101 ft 142 kts 271°
2026-05-04 14:23 45.78513 24.13124 1879 ft 141 kts 272°
2026-05-04 14:23 45.78540 24.11709 1699 ft 141 kts 274°
2026-05-04 14:24 45.78558 24.10306 1484 ft 140 kts 272°
2026-05-04 14:24 45.78579 24.09017 1477 ft 112 kts 270°
2026-05-04 14:24 45.78590 24.08298 1483 ft 44 kts 271°
2026-05-04 14:24 45.78595 24.08092 1501 ft 11 kts 285°
2026-05-04 14:25 45.78594 24.08029 1501 ft 5 kts 206°
2026-05-04 14:25 45.78590 24.08109 1500 ft 7 kts 83°
2026-05-04 14:25 45.78589 24.08204 1498 ft 12 kts 92°
2026-05-04 14:26 45.78586 24.08329 1484 ft 13 kts 88°
2026-05-04 14:26 45.78641 24.08404 1488 ft 14 kts
2026-05-04 14:26 45.78725 24.08407 1482 ft 14 kts
2026-05-04 14:26 45.78813 24.08442 1477 ft 13 kts 61°
2026-05-04 14:27 45.78817 24.08565 1470 ft 15 kts 91°
2026-05-04 14:27 45.78814 24.08748 1462 ft 21 kts 91°
2026-05-04 14:27 45.78813 24.08915 1460 ft 17 kts 91°
2026-05-04 14:27 45.78810 24.09085 1460 ft 13 kts 91°
2026-05-04 14:28 45.78808 24.09228 1460 ft 15 kts 92°
2026-05-04 14:28 45.78804 24.09364 1460 ft 15 kts 92°
2026-05-04 14:28 45.78801 24.09518 1460 ft 10 kts 91°
2026-05-04 14:28 45.78804 24.09546 1460 ft 1 kts 70°
2026-05-04 14:29 45.78825 24.09599 1460 ft 3 kts 51°
2026-05-04 14:29 45.78843 24.09626 1460 ft 1 kts 36°
2026-05-04 14:30 45.78846 24.09629 1460 ft 0 kts 35°
2026-05-04 14:31 45.78845 24.09630 1460 ft 0 kts 31°